SCP
0 0 0 0 0 0 0 0 0 0 0 0 0 -0 -0 -0 -0 -0 0 0 -0 -1 -0 -1 -1 -1 -1 -1 -1 -1 -1 -1 -1 -1 -1 -0 -0 -0 -0 -0 -0 -0 -0 -0 -0 0 0 0 0
0 0 0 0 0 0 0 0 0 0 0 0 0 0 -0 0 0 0 0 -0 -0 -1 -0 -0 -1 -1 -1 -1 -1 -1 -1 -1 -1 -1 -0 -0 -0 -0 -0 -0 -0 -0 -0 -0 -0 0 0 0 0
0 0 0 0 0 0 0 0 0 0 0 0 0 0 0 0 0 0 -0 -0 -0 -0 -0 -0 -1 -1 -1 -1 -1 -1 -1 -0 -0 -0 -0 -0 -0 -0 -0 -0 -0 -0 -0 -0 -0 -0 0 0 0
0 0 0 0 0 0 0 0 0 0 0 0 0 0 0 0 -0 -0 -0 -0 -0 -0 -0 -0 -1 -1 -1 -1 -1 -1 -0 -0 -0 -0 -0 -0 -0 -0 -0 -0 -0 -0 -0 -0 -0 0 0 -0 -0
0 0 0 0 0 0 0 0 0 0 0 0 0 0 0 0 0 0 -0 0 -0 -0 0 -0 -1 -1 -1 -1 -1 -1 -0 -0 -0 -0 -0 -0 -0 -0 -0 -0 0 -0 0 -0 0 0 -0 -0 -0
0 0 0 0 0 0 0 0 0 -0 -0 0 0 0 0 0 0 0 0 0 0 0 0 0 -0 -0 -0 -0 -0 -0 -0 -0 -0 -0 -0 -0 -0 -0 -0 -0 -0 0 0 0 -0 -0 -0 -0 -0
0 0 0 0 -0 -0 -0 0 0 0 0 0 0 0 0 1 0 0 0 0 0 0 0 0 0 0 -0 -0 -0 -0 -0 -0 -0 -0 -0 -0 -0 -0 0 0 0 0 0 -0 -0 -0 -0 -0 -0
0 0 0 0 0 0 0 0 0 0 0 0 0 0 1 1 1 0 0 0 1 1 0 0 1 1 1 0 0 -0 -0 -0 -0 -0 -0 -0 0 0 0 0 0 0 0 -0 -0 -0 -0 -0 -0
0 0 0 0 0 0 0 0 0 0 0 0 0 0 0 1 1 1 1 1 1 0 0 0 0 0 0 1 0 0 0 0 -0 -0 0 0 0 0 0 0 0 0 0 -0 -0 -0 -0 -0 -0
0 0 0 0 0 0 0 0 0 0 0 0 0 0 1 1 1 1 1 1 0 0 0 0 0 0 0 1 1 1 0 0 0 0 0 0 0 0 0 0 0 0 0 0 0 0 -0 -0 0
0 0 0 0 0 0 0 0 0 0 0 0 0 0 0 1 2 1 1 1 0 0 0 0 0 0 0 1 1 1 1 1 1 0 0 0 0 0 0 0 0 0 0 0 0 0 0 0 0
0 0 0 0 0 0 0 -0 0 0 0 0 0 0 0 1 2 1 1 1 1 0 0 0 0 0 1 1 1 1 1 1 1 0 0 0 0 0 0 0 0 0 0 0 0 0 0 0 0
0 0 0 0 0 0 0 0 0 0 0 0 0 0 0 0 0 1 1 1 1 1 1 1 1 1 1 1 1 1 1 1 1 1 0 0 0 0 0 0 0 0 0 0 0 0 0 0 0
0 0 0 0 0 0 0 0 -0 -0 0 0 0 0 0 0 0 0 0 0 1 1 1 1 1 1 1 1 1 2 2 2 1 1 1 0 0 0 0 0 0 0 0 0 0 0 0 0 0
0 0 0 0 0 0 0 0 0 0 0 0 0 0 0 0 0 0 0 0 0 1 2 1 2 2 2 2 1 2 2 2 1 1 1 1 0 0 0 0 0 0 0 0 0 0 0 0 0
0 0 0 0 0 0 0 0 -0 -0 0 0 0 0 0 0 0 0 0 0 0 1 2 2 3 2 2 2 2 1 1 1 1 0 1 1 0 0 0 0 0 0 0 0 0 0 0 0 0
0 0 0 0 0 0 0 0 -0 -0 0 0 0 0 0 0 0 0 0 0 0 0 2 1 2 2 2 2 2 2 1 1 1 1 1 1 1 0 0 0 0 0 0 0 0 0 0 0 0
0 0 0 0 0 0 0 0 0 0 0 0 0 0 0 0 0 0 0 0 0 0 1 1 2 2 1 2 2 0 0 1 0 0 0 0 1 0 0 0 0 0 0 0 0 0 0 0 0
0 0 0 0 0 0 0 0 0 0 0 0 0 0 0 0 0 0 0 0 0 0 0 0 1 1 0 1 1 0 1 0 0 0 0 0 0 0 0 0 0 0 0 0 0 0 0 0 0
0 0 0 0 0 0 0 0 0 0 0 0 0 0 0 0 0 0 0 0 0 0 0 0 0 0 0 1 1 0 0 0 0 0 0 0 0 0 0 0 0 0 0 0 0 0 0 0 0
0 0 0 0 0 0 0 0 0 0 0 0 0 0 0 0 0 0 0 0 0 0 0 0 0 0 0 0 0 0 0 0 0 0 0 0 0 0 0 0 0 0 0 0 0 0 0 0 0
0 0 0 0 0 0 0 0 0 0 0 0 0 0 0 0 0 0 0 0 0 0 0 0 0 0 0 0 0 0 0 0 0 0 0 0 0 0 0 0 0 0 0 0 0 0 0 0 0
0 0 0 0 0 0 0 0 0 0 0 0 0 0 0 0 0 0 0 0 0 0 0 0 0 1 0 0 0 0 0 0 0 0 0 0 0 0 0 0 0 0 0 0 0 0 0 0 0
0 0 0 0 0 0 0 0 0 0 0 0 0 0 0 0 0 0 0 0 0 0 0 0 0 0 0 0 0 0 0 0 0 0 0 0 0 0 0 0 0 0 0 0 0 0 0 0 0
0 0 0 0 0 0 0 0 0 0 0 0 0 0 0 0 0 1 1 1 1 1 1 0 0 0 0 0 0 0 0 0 0 0 0 0 0 0 0 0 0 0 0 0 0 0 0 0 0
0 0 0 0 0 0 0 0 0 0 0 0 0 0 0 0 0 1 1 1 1 1 1 0 0 0 0 0 0 0 0 0 0 0 0 0 0 0 0 0 0 0 0 0 0 0 0 0 0
0 0 0 0 0 0 0 0 0 0 0 0 0 0 0 0 0 0 1 1 1 1 1 1 0 0 0 0 0 0 0 0 0 0 0 0 0 0 0 0 0 0 0 0 0 0 0 0 0
0 0 0 0 0 0 0 0 0 0 0 0 0 0 0 0 0 0 0 0 0 0 0 0 0 0 0 0 0 0 0 0 0 0 0 0 0 0 0 0 0 0 0 0 0 0 0 0 0
0 0 0 0 0 0 0 0 0 0 0 0 0 0 0 0 0 0 0 0 0 0 0 0 0 0 0 0 0 0 0 0 0 0 0 0 0 0 0 0 0 0 0 0 0 0 0 0 0
0 0 0 0 0 0 0 0 0 0 0 0 0 0 0 0 0 0 0 0 0 0 0 0 0 0 0 0 0 0 0 0 0 0 0 0 0 0 0 0 0 0 0 0 0 0 0 0 0
Wind_Speed_500mb
18 15 9 1 6 9 6 13 3 11 8 5 40 15 9 3 7 7 15 48 52 68 71 63 56 49 43 43 43 43 41 40 38 35 33 32 34 39 42 37 34 32 31 30 29 28 30 32 37
11 7 4 6 8 3 10 10 9 9 17 46 13 12 1 5 9 9 39 43 53 63 71 67 59 51 46 44 43 42 40 38 37 36 35 36 38 43 41 36 33 31 30 30 28 28 30 32 32
7 8 6 7 8 13 11 12 9 13 31 12 19 12 7 12 11 28 28 42 59 63 68 68 62 54 47 44 42 39 37 37 38 38 39 40 44 45 39 35 32 29 28 28 27 27 28 28 28
6 7 6 6 19 12 14 7 7 12 15 25 33 14 16 12 11 29 37 42 57 63 67 68 64 58 50 45 42 38 35 38 41 41 42 45 47 43 38 33 29 27 26 27 26 26 27 29 27
12 4 3 6 14 8 8 15 5 3 9 22 23 11 6 7 17 22 44 43 53 64 69 69 65 60 54 48 42 38 34 37 40 42 45 49 49 44 38 33 29 26 25 25 26 26 26 27 27
6 6 3 15 14 5 6 16 7 5 8 18 12 13 10 14 21 23 44 41 52 60 68 70 66 61 55 49 43 39 36 36 41 42 47 51 50 45 39 34 29 27 26 26 27 27 28 29 29
11 8 10 9 8 5 9 18 7 6 13 2 21 7 9 17 29 30 51 45 58 62 66 70 68 63 56 51 45 41 37 36 40 43 47 49 48 44 39 34 29 26 25 25 25 27 29 30 31
10 7 5 11 7 8 7 8 7 2 6 27 24 9 11 26 36 41 53 50 61 64 65 68 68 66 62 56 50 44 40 37 37 40 44 47 46 43 39 34 29 26 25 24 25 26 28 30 31
10 4 9 10 10 7 2 1 1 14 8 21 24 15 24 19 42 51 55 56 66 65 64 65 68 66 62 58 54 50 46 41 38 37 40 44 44 43 41 36 32 29 26 24 25 26 27 28 29
10 8 18 14 9 5 1 6 15 14 24 8 8 24 3 23 43 56 56 58 63 63 65 66 66 67 66 64 60 56 53 51 48 44 41 39 41 41 40 38 35 31 28 26 26 27 27 28 27
14 13 9 7 21 18 6 4 16 8 12 10 3 13 6 24 39 46 48 49 53 54 58 64 66 67 69 68 66 63 61 57 54 51 48 41 38 38 39 39 39 36 33 30 28 28 27 26 26
9 23 31 7 25 23 13 9 6 16 28 32 34 22 4 3 26 42 46 48 48 48 54 62 67 69 68 68 67 66 65 63 61 59 54 50 45 40 38 38 38 39 38 37 34 31 27 27 26
7 5 20 50 54 47 52 35 18 38 62 57 46 41 24 13 11 18 40 40 43 43 51 58 63 68 70 71 70 67 67 65 63 61 59 56 53 49 44 41 40 39 41 43 42 38 33 30 31
12 33 35 33 33 17 15 37 19 17 31 32 34 34 34 30 24 22 22 30 38 38 43 51 62 66 69 72 71 68 66 66 63 62 62 61 58 54 51 48 45 43 41 43 46 43 38 37 39
13 13 18 13 12 12 16 45 51 36 47 60 54 47 43 40 34 34 34 37 35 35 34 48 63 66 68 71 71 70 65 64 65 58 59 61 60 57 54 52 49 46 42 42 45 46 40 39 39
4 8 9 13 17 14 26 51 17 16 31 44 44 48 46 43 37 38 36 37 39 41 41 40 51 67 73 74 72 69 62 59 62 56 54 57 59 59 57 55 53 47 45 44 45 45 45 43 40
6 7 7 3 19 12 23 6 5 32 39 44 47 48 52 53 54 54 49 41 42 45 43 44 48 54 63 77 75 70 61 54 58 55 54 53 55 57 57 57 52 48 49 50 48 44 44 44 46
10 7 7 8 12 19 22 29 16 48 24 40 57 61 62 60 51 50 54 50 43 42 44 42 45 53 61 72 76 71 60 57 53 52 49 47 52 54 54 53 51 51 53 50 46 48 49 48 51
2 6 4 3 12 13 17 30 17 31 27 32 46 48 53 53 52 47 47 50 43 32 38 43 46 46 57 64 75 75 69 61 58 57 56 53 51 50 44 45 44 45 45 43 42 47 49 46 50
17 24 14 9 19 9 12 17 17 18 18 33 50 57 62 63 63 55 47 42 37 37 35 42 44 46 53 58 66 73 72 63 57 56 58 54 50 48 45 46 45 48 41 48 53 44 50 48 54
25 31 14 8 13 13 7 17 12 15 19 39 52 61 64 60 56 51 47 45 46 45 39 38 41 43 50 56 64 73 72 67 60 61 57 59 56 52 50 47 50 52 50 49 47 49 53 56 56
28 17 12 16 14 9 6 13 13 11 20 14 37 52 66 64 54 49 42 44 46 47 42 36 37 45 50 50 58 68 72 72 64 52 39 51 52 49 49 43 45 39 44 44 47 47 51 53 55
19 20 21 20 13 9 13 4 12 5 17 20 19 39 47 50 46 38 42 43 37 34 35 32 33 44 50 49 56 64 63 61 51 37 38 40 38 42 42 44 39 40 48 49 45 42 39 45 45
19 8 5 3 6 7 17 13 9 10 16 11 11 23 27 30 30 37 41 35 23 24 26 26 32 41 50 51 49 50 51 43 35 30 40 38 35 40 43 35 45 41 38 32 37 35 38 44 42
19 15 7 1 3 18 18 8 27 17 11 11 9 15 22 26 31 38 38 40 44 45 43 38 35 34 32 33 29 31 35 38 37 38 34 34 29 27 25 31 32 31 31 38 35 37 46 49 42
27 22 9 15 8 8 9 17 17 13 19 19 3 30 29 28 32 40 48 51 52 51 46 36 29 22 20 23 27 30 31 34 32 29 30 25 30 27 23 30 36 36 38 41 41 45 50 46 47
10 23 14 5 5 4 11 12 10 6 15 12 17 42 38 37 40 43 45 49 47 43 40 36 31 25 18 20 20 16 14 13 9 10 15 22 27 28 37 39 41 37 36 36 43 47 44 42 47
15 19 9 3 10 7 7 9 12 8 13 11 11 29 47 55 62 61 58 57 53 44 36 30 24 21 18 16 10 11 13 11 10 10 16 21 25 27 27 27 23 22 23 23 24 27 35 41 46
8 17 7 13 8 10 8 7 3 1 2 5 10 17 40 61 71 68 67 64 57 53 45 42 34 29 28 24 23 21 26 25 21 20 21 20 15 14 10 7 7 8 11 17 25 24 21 21 23
17 26 17 9 8 6 3 3 7 9 9 18 21 30 43 54 65 70 71 68 63 64 59 56 50 43 37 31 29 31 32 28 21 17 13 11 12 12 8 4 4 6 11 15 18 19 23 21 26
Wind_Direction_500mb
275 273 282 295 55 63 258 261 259 302 316 277 312 239 184 147 170 220 154 166 170 167 167 168 168 170 174 174 175 173 172 170 171 172 170 166 158 152 150 147 146 144 141 139 135 128 125 126 125
277 247 189 111 104 118 261 262 215 237 310 317 317 227 342 234 202 160 152 162 171 169 168 168 169 171 171 171 172 173 174 175 176 176 172 166 160 156 154 152 152 150 147 145 142 134 132 133 132
270 176 149 124 149 195 214 224 208 319 333 333 345 350 350 311 202 163 164 162 172 174 171 170 171 173 172 171 172 175 177 180 181 178 173 168 163 160 159 158 155 153 153 153 151 145 143 145 143
195 148 85 123 223 246 200 163 178 344 331 335 327 309 314 270 206 170 167 166 173 177 175 173 174 175 175 174 177 177 177 177 176 176 173 169 166 164 165 164 162 160 161 161 160 157 157 160 159
174 134 83 257 244 246 233 271 241 13 268 307 323 277 253 229 192 178 172 171 173 178 178 177 178 178 179 179 180 178 175 174 175 177 175 173 171 171 172 170 169 169 170 169 169 169 172 173 175
137 108 87 231 223 168 275 256 280 242 238 315 332 289 248 211 204 188 178 173 176 179 180 180 181 182 183 184 184 183 178 175 179 180 179 179 178 178 178 177 177 177 179 178 178 180 184 187 191
134 104 217 263 275 286 220 229 235 256 309 171 331 242 250 212 213 188 181 182 177 183 183 184 185 186 187 187 189 189 185 182 182 184 185 185 185 185 185 185 185 186 187 187 186 188 192 197 201
185 112 214 233 249 264 248 192 178 130 301 336 352 246 262 223 208 186 183 185 183 186 188 188 188 190 191 190 192 193 195 193 189 190 191 193 194 194 195 193 193 194 195 196 197 199 200 203 207
174 124 226 238 167 233 210 9 353 323 300 340 35 317 279 272 202 182 182 183 187 189 193 194 194 195 197 198 197 197 197 200 200 198 198 200 201 202 202 202 203 203 204 203 206 210 210 210 212
170 179 220 201 202 228 25 357 342 337 334 321 28 19 220 212 192 184 183 184 190 195 196 198 200 201 202 203 204 204 204 205 204 205 206 206 208 211 212 214 216 217 217 216 217 219 222 223 223
190 210 231 222 240 268 248 234 278 235 297 231 43 63 46 185 179 186 190 196 196 198 203 203 204 205 207 207 207 208 210 211 212 213 213 212 213 215 219 223 225 228 229 230 229 231 234 237 238
199 225 226 230 243 261 261 204 234 252 249 276 289 306 172 191 201 198 202 204 204 208 209 208 207 209 212 214 214 215 215 215 216 217 217 217 219 223 226 230 233 236 237 237 238 241 244 247 249
234 255 234 243 249 251 269 256 236 255 270 278 279 284 252 220 226 238 232 229 220 218 217 216 214 213 215 217 219 221 223 223 223 224 223 223 225 228 231 234 237 240 242 242 241 241 242 246 249
210 215 239 244 249 240 241 274 216 220 264 269 280 276 261 250 246 229 228 227 233 239 244 235 225 222 219 222 223 224 228 228 228 230 230 229 231 234 237 239 241 243 245 246 244 245 246 249 249
265 267 268 234 235 246 245 277 247 245 258 265 268 267 262 246 247 245 242 236 237 238 250 243 234 232 228 227 225 226 230 231 231 235 235 233 235 237 239 243 245 248 250 252 247 242 242 245 247
231 150 228 226 187 223 175 256 262 179 223 246 253 258 253 249 250 253 254 246 240 245 239 236 235 236 235 231 229 228 230 234 234 235 233 234 235 237 240 243 246 249 250 251 246 240 240 245 254
281 226 176 262 193 175 198 279 291 236 240 238 247 245 248 261 264 258 259 259 250 241 233 232 230 232 233 233 229 228 229 232 235 235 234 234 237 239 241 245 248 249 250 248 246 246 248 254 256
201 192 228 180 208 204 224 241 275 278 250 233 239 242 247 257 265 260 256 257 258 242 232 229 230 235 230 229 229 226 226 231 233 233 234 232 239 243 243 246 248 246 249 248 251 251 253 262 266
323 241 245 284 237 204 230 257 242 262 247 245 246 246 249 254 266 273 250 254 262 234 224 226 224 231 234 226 224 220 220 224 226 224 227 233 239 238 238 242 243 243 251 246 253 258 262 267 278
227 246 241 274 270 182 270 268 246 246 252 237 256 258 262 264 267 263 251 257 249 247 233 224 224 221 230 232 226 222 220 221 224 228 232 236 239 235 240 245 249 253 255 253 255 273 273 271 272
223 230 235 220 302 281 274 285 258 260 250 261 258 261 261 259 262 255 245 258 259 250 242 224 223 219 223 230 229 222 222 222 226 227 231 234 238 239 240 252 261 262 261 263 273 272 279 274 281
228 180 179 206 193 226 166 275 265 252 264 264 267 258 250 249 246 249 251 248 252 247 231 224 220 214 221 229 233 226 226 223 228 235 250 236 241 249 250 257 262 262 268 265 275 270 271 274 275
235 175 195 210 214 170 246 243 260 310 278 271 265 249 241 235 239 243 244 242 239 226 216 207 205 206 219 227 232 229 231 232 244 253 256 246 257 260 263 265 265 270 275 261 267 269 270 277 276
220 262 82 84 131 209 207 177 270 216 229 271 243 232 221 208 216 238 227 219 202 179 165 164 184 204 218 226 230 232 238 243 254 263 260 260 271 276 290 278 293 281 284 248 279 271 281 288 279
203 179 254 301 242 236 147 167 242 268 257 253 263 144 168 181 198 203 182 164 152 147 147 160 179 198 214 225 223 225 231 239 244 253 272 282 284 293 303 289 290 288 278 281 277 277 281 282 276
204 181 169 189 195 226 102 220 243 260 286 320 188 129 144 154 168 169 156 149 146 146 148 148 156 164 177 191 206 220 231 244 261 271 269 274 276 277 279 290 290 293 294 289 278 279 277 274 269
189 184 170 322 192 148 201 238 317 10 27 40 112 114 117 136 145 145 143 140 140 138 133 136 146 155 168 192 203 209 226 254 288 306 298 299 296 285 281 288 283 283 286 284 274 266 276 272 268
160 138 138 240 173 208 240 206 223 357 347 11 55 111 117 124 122 123 124 120 121 124 128 136 146 152 144 148 125 103 94 63 14 349 332 318 304 296 292 286 287 281 277 280 278 284 290 280 271
136 177 140 135 202 169 174 241 274 62 354 24 35 83 115 124 122 121 119 117 116 115 112 109 109 111 110 109 104 105 102 94 91 89 85 79 57 42 31 11 342 311 291 285 286 280 296 299 283
184 166 202 139 205 229 153 220 76 113 98 103 71 95 120 123 120 122 120 118 117 114 114 111 110 108 104 101 104 107 109 107 107 106 89 58 29 26 9 358 331 314 303 294 293 290 291 297 284
Wind_Speed_850mb
18 15 9 1 6 9 6 13 3 11 8 5 40 15 9 3 7 7 15 48 52 68 71 63 56 49 43 43 43 43 41 40 38 35 33 32 34 39 42 37 34 32 31 30 29 28 30 32 37
11 7 4 6 8 3 10 10 9 9 17 46 13 12 1 5 9 9 39 43 53 63 71 67 59 51 46 44 43 42 40 38 37 36 35 36 38 43 41 36 33 31 30 30 28 28 30 32 32
7 8 6 7 8 13 11 12 9 13 31 12 19 12 7 12 11 28 28 42 59 63 68 68 62 54 47 44 42 39 37 37 38 38 39 40 44 45 39 35 32 29 28 28 27 27 28 28 28
6 7 6 6 19 12 14 7 7 12 15 25 33 14 16 12 11 29 37 42 57 63 67 68 64 58 50 45 42 38 35 38 41 41 42 45 47 43 38 33 29 27 26 27 26 26 27 29 27
12 4 3 6 14 8 8 15 5 3 9 22 23 11 6 7 17 22 44 43 53 64 69 69 65 60 54 48 42 38 34 37 40 42 45 49 49 44 38 33 29 26 25 25 26 26 26 27 27
6 6 3 15 14 5 6 16 7 5 8 18 12 13 10 14 21 23 44 41 52 60 68 70 66 61 55 49 43 39 36 36 41 42 47 51 50 45 39 34 29 27 26 26 27 27 28 29 29
11 8 10 9 8 5 9 18 7 6 13 2 21 7 9 17 29 30 51 45 58 62 66 70 68 63 56 51 45 41 37 36 40 43 47 49 48 44 39 34 29 26 25 25 25 27 29 30 31
10 7 5 11 7 8 7 8 7 2 6 27 24 9 11 26 36 41 53 50 61 64 65 68 68 66 62 56 50 44 40 37 37 40 44 47 46 43 39 34 29 26 25 24 25 26 28 30 31
10 4 9 10 10 7 2 1 1 14 8 21 24 15 24 19 42 51 55 56 66 65 64 65 68 66 62 58 54 50 46 41 38 37 40 44 44 43 41 36 32 29 26 24 25 26 27 28 29
10 8 18 14 9 5 1 6 15 14 24 8 8 24 3 23 43 56 56 58 63 63 65 66 66 67 66 64 60 56 53 51 48 44 41 39 41 41 40 38 35 31 28 26 26 27 27 28 27
14 13 9 7 21 18 6 4 16 8 12 10 3 13 6 24 39 46 48 49 53 54 58 64 66 67 69 68 66 63 61 57 54 51 48 41 38 38 39 39 39 36 33 30 28 28 27 26 26
9 23 31 7 25 23 13 9 6 16 28 32 34 22 4 3 26 42 46 48 48 48 54 62 67 69 68 68 67 66 65 63 61 59 54 50 45 40 38 38 38 39 38 37 34 31 27 27 26
7 5 20 50 54 47 52 35 18 38 62 57 46 41 24 13 11 18 40 40 43 43 51 58 63 68 70 71 70 67 67 65 63 61 59 56 53 49 44 41 40 39 41 43 42 38 33 30 31
12 33 35 33 33 17 15 37 19 17 31 32 34 34 34 30 24 22 22 30 38 38 43 51 62 66 69 72 71 68 66 66 63 62 62 61 58 54 51 48 45 43 41 43 46 43 38 37 39
13 13 18 13 12 12 16 45 51 36 47 60 54 47 43 40 34 34 34 37 35 35 34 48 63 66 68 71 71 70 65 64 65 58 59 61 60 57 54 52 49 46 42 42 45 46 40 39 39
4 8 9 13 17 14 26 51 17 16 31 44 44 48 46 43 37 38 36 37 39 41 41 40 51 67 73 74 72 69 62 59 62 56 54 57 59 59 57 55 53 47 45 44 45 45 45 43 40
6 7 7 3 19 12 23 6 5 32 39 44 47 48 52 53 54 54 49 41 42 45 43 44 48 54 63 77 75 70 61 54 58 55 54 53 55 57 57 57 52 48 49 50 48 44 44 44 46
10 7 7 8 12 19 22 29 16 48 24 40 57 61 62 60 51 50 54 50 43 42 44 42 45 53 61 72 76 71 60 57 53 52 49 47 52 54 54 53 51 51 53 50 46 48 49 48 51
2 6 4 3 12 13 17 30 17 31 27 32 46 48 53 53 52 47 47 50 43 32 38 43 46 46 57 64 75 75 69 61 58 57 56 53 51 50 44 45 44 45 45 43 42 47 49 46 50
17 24 14 9 19 9 12 17 17 18 18 33 50 57 62 63 63 55 47 42 37 37 35 42 44 46 53 58 66 73 72 63 57 56 58 54 50 48 45 46 45 48 41 48 53 44 50 48 54
25 31 14 8 13 13 7 17 12 15 19 39 52 61 64 60 56 51 47 45 46 45 39 38 41 43 50 56 64 73 72 67 60 61 57 59 56 52 50 47 50 52 50 49 47 49 53 56 56
28 17 12 16 14 9 6 13 13 11 20 14 37 52 66 64 54 49 42 44 46 47 42 36 37 45 50 50 58 68 72 72 64 52 39 51 52 49 49 43 45 39 44 44 47 47 51 53 55
19 20 21 20 13 9 13 4 12 5 17 20 19 39 47 50 46 38 42 43 37 34 35 32 33 44 50 49 56 64 63 61 51 37 38 40 38 42 42 44 39 40 48 49 45 42 39 45 45
19 8 5 3 6 7 17 13 9 10 16 11 11 23 27 30 30 37 41 35 23 24 26 26 32 41 50 51 49 50 51 43 35 30 40 38 35 40 43 35 45 41 38 32 37 35 38 44 42
19 15 7 1 3 18 18 8 27 17 11 11 9 15 22 26 31 38 38 40 44 45 43 38 35 34 32 33 29 31 35 38 37 38 34 34 29 27 25 31 32 31 31 38 35 37 46 49 42
27 22 9 15 8 8 9 17 17 13 19 19 3 30 29 28 32 40 48 51 52 51 46 36 29 22 20 23 27 30 31 34 32 29 30 25 30 27 23 30 36 36 38 41 41 45 50 46 47
10 23 14 5 5 4 11 12 10 6 15 12 17 42 38 37 40 43 45 49 47 43 40 36 31 25 18 20 20 16 14 13 9 10 15 22 27 28 37 39 41 37 36 36 43 47 44 42 47
15 19 9 3 10 7 7 9 12 8 13 11 11 29 47 55 62 61 58 57 53 44 36 30 24 21 18 16 10 11 13 11 10 10 16 21 25 27 27 27 23 22 23 23 24 27 35 41 46
8 17 7 13 8 10 8 7 3 1 2 5 10 17 40 61 71 68 67 64 57 53 45 42 34 29 28 24 23 21 26 25 21 20 21 20 15 14 10 7 7 8 11 17 25 24 21 21 23
17 26 17 9 8 6 3 3 7 9 9 18 21 30 43 54 65 70 71 68 63 64 59 56 50 43 37 31 29 31 32 28 21 17 13 11 12 12 8 4 4 6 11 15 18 19 23 21 26
Wind_Direction_850mb
275 273 282 295 55 63 258 261 259 302 316 277 312 239 184 147 170 220 154 166 170 167 167 168 168 170 174 174 175 173 172 170 171 172 170 166 158 152 150 147 146 144 141 139 135 128 125 126 125
277 247 189 111 104 118 261 262 215 237 310 317 317 227 342 234 202 160 152 162 171 169 168 168 169 171 171 171 172 173 174 175 176 176 172 166 160 156 154 152 152 150 147 145 142 134 132 133 132
270 176 149 124 149 195 214 224 208 319 333 333 345 350 350 311 202 163 164 162 172 174 171 170 171 173 172 171 172 175 177 180 181 178 173 168 163 160 159 158 155 153 153 153 151 145 143 145 143
195 148 85 123 223 246 200 163 178 344 331 335 327 309 314 270 206 170 167 166 173 177 175 173 174 175 175 174 177 177 177 177 176 176 173 169 166 164 165 164 162 160 161 161 160 157 157 160 159
174 134 83 257 244 246 233 271 241 13 268 307 323 277 253 229 192 178 172 171 173 178 178 177 178 178 179 179 180 178 175 174 175 177 175 173 171 171 172 170 169 169 170 169 169 169 172 173 175
137 108 87 231 223 168 275 256 280 242 238 315 332 289 248 211 204 188 178 173 176 179 180 180 181 182 183 184 184 183 178 175 179 180 179 179 178 178 178 177 177 177 179 178 178 180 184 187 191
134 104 217 263 275 286 220 229 235 256 309 171 331 242 250 212 213 188 181 182 177 183 183 184 185 186 187 187 189 189 185 182 182 184 185 185 185 185 185 185 185 186 187 187 186 188 192 197 201
185 112 214 233 249 264 248 192 178 130 301 336 352 246 262 223 208 186 183 185 183 186 188 188 188 190 191 190 192 193 195 193 189 190 191 193 194 194 195 193 193 194 195 196 197 199 200 203 207
174 124 226 238 167 233 210 9 353 323 300 340 35 317 279 272 202 182 182 183 187 189 193 194 194 195 197 198 197 197 197 200 200 198 198 200 201 202 202 202 203 203 204 203 206 210 210 210 212
170 179 220 201 202 228 25 357 342 337 334 321 28 19 220 212 192 184 183 184 190 195 196 198 200 201 202 203 204 204 204 205 204 205 206 206 208 211 212 214 216 217 217 216 217 219 222 223 223
190 210 231 222 240 268 248 234 278 235 297 231 43 63 46 185 179 186 190 196 196 198 203 203 204 205 207 207 207 208 210 211 212 213 213 212 213 215 219 223 225 228 229 230 229 231 234 237 238
199 225 226 230 243 261 261 204 234 252 249 276 289 306 172 191 201 198 202 204 204 208 209 208 207 209 212 214 214 215 215 215 216 217 217 217 219 223 226 230 233 236 237 237 238 241 244 247 249
234 255 234 243 249 251 269 256 236 255 270 278 279 284 252 220 226 238 232 229 220 218 217 216 214 213 215 217 219 221 223 223 223 224 223 223 225 228 231 234 237 240 242 242 241 241 242 246 249
210 215 239 244 249 240 241 274 216 220 264 269 280 276 261 250 246 229 228 227 233 239 244 235 225 222 219 222 223 224 228 228 228 230 230 229 231 234 237 239 241 243 245 246 244 245 246 249 249
265 267 268 234 235 246 245 277 247 245 258 265 268 267 262 246 247 245 242 236 237 238 250 243 234 232 228 227 225 226 230 231 231 235 235 233 235 237 239 243 245 248 250 252 247 242 242 245 247
231 150 228 226 187 223 175 256 262 179 223 246 253 258 253 249 250 253 254 246 240 245 239 236 235 236 235 231 229 228 230 234 234 235 233 234 235 237 240 243 246 249 250 251 246 240 240 245 254
281 226 176 262 193 175 198 279 291 236 240 238 247 245 248 261 264 258 259 259 250 241 233 232 230 232 233 233 229 228 229 232 235 235 234 234 237 239 241 245 248 249 250 248 246 246 248 254 256
201 192 228 180 208 204 224 241 275 278 250 233 239 242 247 257 265 260 256 257 258 242 232 229 230 235 230 229 229 226 226 231 233 233 234 232 239 243 243 246 248 246 249 248 251 251 253 262 266
323 241 245 284 237 204 230 257 242 262 247 245 246 246 249 254 266 273 250 254 262 234 224 226 224 231 234 226 224 220 220 224 226 224 227 233 239 238 238 242 243 243 251 246 253 258 262 267 278
227 246 241 274 270 182 270 268 246 246 252 237 256 258 262 264 267 263 251 257 249 247 233 224 224 221 230 232 226 222 220 221 224 228 232 236 239 235 240 245 249 253 255 253 255 273 273 271 272
223 230 235 220 302 281 274 285 258 260 250 261 258 261 261 259 262 255 245 258 259 250 242 224 223 219 223 230 229 222 222 222 226 227 231 234 238 239 240 252 261 262 261 263 273 272 279 274 281
228 180 179 206 193 226 166 275 265 252 264 264 267 258 250 249 246 249 251 248 252 247 231 224 220 214 221 229 233 226 226 223 228 235 250 236 241 249 250 257 262 262 268 265 275 270 271 274 275
235 175 195 210 214 170 246 243 260 310 278 271 265 249 241 235 239 243 244 242 239 226 216 207 205 206 219 227 232 229 231 232 244 253 256 246 257 260 263 265 265 270 275 261 267 269 270 277 276
220 262 82 84 131 209 207 177 270 216 229 271 243 232 221 208 216 238 227 219 202 179 165 164 184 204 218 226 230 232 238 243 254 263 260 260 271 276 290 278 293 281 284 248 279 271 281 288 279
203 179 254 301 242 236 147 167 242 268 257 253 263 144 168 181 198 203 182 164 152 147 147 160 179 198 214 225 223 225 231 239 244 253 272 282 284 293 303 289 290 288 278 281 277 277 281 282 276
204 181 169 189 195 226 102 220 243 260 286 320 188 129 144 154 168 169 156 149 146 146 148 148 156 164 177 191 206 220 231 244 261 271 269 274 276 277 279 290 290 293 294 289 278 279 277 274 269
189 184 170 322 192 148 201 238 317 10 27 40 112 114 117 136 145 145 143 140 140 138 133 136 146 155 168 192 203 209 226 254 288 306 298 299 296 285 281 288 283 283 286 284 274 266 276 272 268
160 138 138 240 173 208 240 206 223 357 347 11 55 111 117 124 122 123 124 120 121 124 128 136 146 152 144 148 125 103 94 63 14 349 332 318 304 296 292 286 287 281 277 280 278 284 290 280 271
136 177 140 135 202 169 174 241 274 62 354 24 35 83 115 124 122 121 119 117 116 115 112 109 109 111 110 109 104 105 102 94 91 89 85 79 57 42 31 11 342 311 291 285 286 280 296 299 283
184 166 202 139 205 229 153 220 76 113 98 103 71 95 120 123 120 122 120 118 117 114 114 111 110 108 104 101 104 107 109 107 107 106 89 58 29 26 9 358 331 314 303 294 293 290 291 297 284